RH
95 91 87 96 102 99 93 81 75 81 85 90 98 104 104 93 83 83 87 92 96 95 95 99 102 99 91 87 92 94 94 98 102 100 100 100 100 99 99 101 100 100 101 101 102 102 103 105 106 104 104 102 101 101 101 101 101 100 101 102 101 101 100 98 98 99 99 100 100 100 101 103 103 102 101 101 100 100 100 99 100 100 101 101 101 102 104 104
99 99 95 101 103 99 102 97 91 96 91 82 89 98 104 103 95 89 87 83 83 82 78 83 97 103 101 97 97 91 80 81 94 100 101 101 100 99 100 101 101 101 100 100 100 100 101 102 102 102 102 102 101 101 100 101 101 101 101 100 100 101 99 96 95 96 99 101 102 100 99 99 101 102 102 102 101 100 100 100 100 101 101 101 100 100 101 101
99 101 99 102 104 100 101 101 96 100 102 95 93 95 95 97 97 97 97 94 91 88 74 66 78 93 102 103 102 100 91 81 78 82 88 94 97 97 96 98 101 101 100 100 100 100 100 100 100 101 101 101 102 101 100 102 101 101 101 101 101 101 101 99 99 98 100 102 101 100 99 99 98 99 100 103 104 103 104 103 101 101 101 101 100 101 101 100
102 100 100 100 103 103 100 101 100 100 101 100 100 99 97 95 96 96 99 101 100 100 91 75 68 73 87 100 102 102 102 97 87 78 74 78 87 90 90 94 100 102 101 100 101 101 102 102 102 102 103 103 103 101 101 102 101 102 102 102 101 101 101 101 103 103 103 103 103 104 103 101 100 99 100 102 103 103 105 106 105 104 105 105 105 105 104 103
108 101 100 100 100 102 103 101 100 102 101 100 100 101 101 100 99 98 97 97 98 101 102 97 88 79 76 82 90 95 101 103 100 95 85 76 76 82 91 97 100 101 100 99 99 100 99 99 100 101 101 101 100 100 100 101 101 103 103 102 101 100 100 100 100 101 102 103 104 104 104 105 105 105 105 104 104 104 104 106 106 106 107 107 106 106 105 105
107 105 101 100 100 100 102 103 100 101 101 100 100 99 99 101 102 100 98 95 94 97 102 103 101 99 93 85 81 84 93 100 100 99 98 91 82 78 82 84 86 89 92 92 94 95 94 93 92 91 89 86 83 81 81 81 83 86 87 86 87 86 86 85 83 83 83 84 84 86 89 94 98 100 101 101 101 100 100 99 98 98 97 97 97 97 97 98
89 98 104 100 100 101 100 101 101 100 101 101 100 99 99 99 96 94 92 91 91 94 101 104 102 103 103 101 95 90 91 96 98 100 100 99 97 90 80 75 76 78 79 81 83 84 84 82 81 80 78 77 75 74 72 69 68 69 69 68 69 70 71 72 73 73 73 73 73 72 74 76 81 84 86 86 86 85 84 83 81 80 78 78 78 79 81 82
69 75 97 104 100 100 100 100 101 99 100 100 100 101 100 98 94 89 87 86 85 89 94 98 101 101 101 102 102 100 98 97 97 98 100 99 100 100 95 91 89 86 84 85 86 86 85 84 83 84 85 87 87 87 86 84 83 82 81 79 78 77 77 78 78 78 77 76 75 74 73 72 72 72 73 73 72 70 70 68 66 65 64 63 62 62 63 65
66 57 74 96 103 103 100 99 101 101 101 100 100 101 100 100 98 96 93 89 87 87 87 88 90 90 91 94 96 98 101 102 102 102 104 104 101 101 102 100 99 97 95 95 93 91 91 89 87 86 85 85 85 85 85 86 87 87 86 85 85 84 83 82 81 81 79 77 76 74 73 72 70 69 69 68 67 66 64 63 62 60 59 57 56 56 55 55
69 54 53 70 90 101 103 102 101 100 100 100 101 101 101 101 100 101 100 98 97 94 92 91 89 85 83 83 81 84 86 89 94 97 100 105 104 102 101 100 100 96 93 94 96 94 93 90 86 82 80 78 76 75 75 75 75 75 75 75 75 75 75 75 75 74 73 72 71 70 68 66 66 65 64 63 62 62 60 59 57 56 54 53 51 51 51 51
71 58 49 50 63 81 93 99 101 101 101 101 101 100 100 101 100 102 102 100 101 100 100 99 97 95 92 89 83 80 78 74 76 76 77 85 89 84 81 84 86 81 78 82 88 89 87 83 79 75 73 73 72 72 72 71 71 70 68 68 67 67 68 68 69 70 70 71 71 69 67 65 64 64 63 61 61 60 59 59 58 56 54 52 50 49 48 47
74 62 52 46 48 60 74 84 89 92 96 98 99 100 101 101 100 101 101 100 101 100 101 102 101 101 100 99 98 96 94 91 88 83 79 80 81 75 71 72 73 71 71 71 74 75 75 75 76 77 79 82 83 84 85 84 84 83 82 81 78 77 78 78 78 78 78 79 79 78 77 75 75 74 72 69 66 64 62 60 58 56 54 52 50 48 47 46
73 64 55 48 45 53 63 70 74 78 82 83 84 86 89 92 94 96 97 97 99 100 101 101 100 101 101 101 101 100 101 101 101 100 99 97 96 94 91 90 89 88 87 86 86 87 88 89 91 94 95 97 98 97 97 97 97 96 96 96 94 91 90 88 88 88 88 88 86 84 82 80 78 77 74 70 67 63 60 58 55 53 51 49 47 46 45 44
66 63 57 50 47 53 61 63 66 69 70 70 70 70 70 71 73 74 76 77 78 82 88 93 97 99 101 101 100 100 101 101 100 101 102 101 101 102 101 102 101 102 102 101 101 101 102 103 102 103 103 102 102 101 100 100 100 100 98 98 98 97 93 88 86 85 84 83 80 77 74 71 70 68 65 62 58 56 53 51 48 46 45 43 42 41 41 40
60 59 56 49 46 54 62 64 65 64 61 64 67 67 66 63 61 59 58 58 58 59 62 68 76 81 87 91 93 95 97 97 97 97 99 98 97 96 96 97 97 98 99 99 99 98 97 96 93 92 90 88 87 86 84 83 82 81 80 79 79 79 77 74 71 69 67 65 61 59 58 57 57 56 54 52 50 49 48 46 45 45 44 43 42 41 40 39
55 54 50 46 46 53 61 66 68 64 61 66 70 67 63 58 54 52 51 51 52 53 54 55 58 61 65 70 72 76 78 79 80 81 83 83 83 82 82 82 82 81 81 80 80 78 76 74 71 70 69 69 68 67 67 66 66 65 65 64 63 62 61 59 57 55 53 52 50 49 48 49 50 50 50 49 48 47 46 45 43 41 39 37 35 34 32 31
49 46 43 43 45 51 59 66 67 64 68 75 72 63 56 53 51 51 53 55 55 55 56 57 57 57 58 59 60 62 63 64 65 66 67 68 68 68 67 67 67 66 65 65 65 65 65 65 65 65 66 66 66 66 65 65 64 63 61 60 58 57 55 54 53 52 52 51 50 48 48 47 47 46 44 41 39 36 34 31 29 27 26 24 23 22 21 21
43 40 40 42 46 53 62 67 67 69 76 75 65 57 54 55 57 58 59 59 58 56 55 54 53 54 55 55 56 57 58 59 59 60 61 61 62 62 61 62 62 62 62 62 63 64 64 65 65 65 65 65 64 63 63 62 60 59 58 58 57 56 55 54 52 51 49 46 44 41 38 36 34 32 29 27 26 24 23 22 21 21 20 20 20 19 19 19
40 39 40 44 51 59 65 68 70 75 76 67 59 59 61 63 63 61 59 56 54 53 52 52 52 52 52 53 54 54 55 56 57 57 58 58 59 59 59 60 61 62 63 63 64 64 64 64 64 64 63 62 62 61 61 60 59 58 57 55 52 49 46 43 40 37 34 31 29 27 26 24 24 23 23 23 23 23 23 22 22 21 22 22 22 22 21 21
38 40 43 50 56 62 67 71 75 75 68 61 60 63 65 65 63 58 54 51 51 50 50 50 51 51 52 52 53 53 54 55 56 56 57 58 59 60 61 62 62 63 63 63 63 62 62 62 61 61 61 60 59 57 56 53 50 46 42 38 35 32 29 27 26 24 23 23 23 22 22 22 22 23 23 24 24 25 25 25 26 26 26 26 26 27 27 27
40 43 49 56 60 66 72 76 76 70 64 63 65 66 64 61 58 56 53 51 51 50 51 52 52 53 53 53 54 55 56 56 57 59 61 62 64 64 65 64 64 64 63 62 62 61 60 60 59 57 54 50 46 42 38 34 31 28 26 25 23 23 23 23 23 23 23 23 24 24 24 24 24 26 28 29 30 31 32 32 32 32 32 32 32 32 32 32
44 50 57 62 67 73 79 78 72 67 67 69 68 65 61 58 56 55 53 53 54 54 55 55 56 56 56 57 57 58 59 60 63 64 65 66 66 66 65 65 65 64 64 63 63 61 57 53 48 42 37 33 29 27 25 24 23 23 23 23 23 24 24 25 26 26 26 27 28 29 29 30 32 34 36 36 37 38 37 37 36 35 35 35 35 35 35 35
51 58 64 70 76 79 78 74 70 70 73 72 69 64 60 57 56 56 56 57 58 59 59 59 59 58 57 57 57 59 63 65 68 68 67 68 68 68 68 69 69 68 66 62 56 50 43 37 32 29 27 26 25 25 24 24 24 24 25 25 26 26 27 27 28 29 31 32 34 35 35 37 39 40 40 40 40 40 39 39 39 38 39 39 39 39 39 39
60 65 71 77 81 79 74 69 70 74 75 71 66 61 59 58 59 60 62 63 63 62 61 59 57 56 57 59 63 67 69 69 70 70 71 71 72 71 72 71 68 62 54 45 39 33 30 28 27 26 25 25 25 25 25 26 26 27 27 27 28 28 29 30 33 35 37 38 38 38 37 38 40 42 43 44 44 45 45 45 45 45 45 45 45 45 45 45
68 72 78 82 80 74 70 69 73 75 72 67 62 60 62 63 64 65 65 65 64 62 59 57 57 59 65 69 71 72 73 73 73 73 74 73 72 69 64 57 48 40 34 29 27 26 26 26 25 25 25 26 27 27 28 28 27 28 29 30 32 34 37 38 38 39 39 39 38 37 37 38 43 47 49 50 50 50 49 48 48 47 47 46 47 47 47 48
76 80 81 79 74 72 72 74 75 72 67 63 62 65 68 68 67 67 67 65 63 60 58 59 64 69 73 74 73 73 75 75 74 74 73 68 61 52 43 35 30 28 27 26 26 26 26 26 26 26 27 28 28 28 29 30 32 35 38 40 41 42 42 41 39 38 38 38 39 40 41 43 47 50 50 49 48 47 46 46 45 44 44 44 45 46 47 47
83 82 77 73 73 76 77 77 73 67 63 64 69 72 72 70 69 68 66 64 63 62 62 66 71 74 73 73 75 76 77 75 73 69 62 51 41 33 28 27 27 27 26 26 26 26 26 26 27 27 28 29 30 32 35 39 43 46 46 46 44 43 42 41 41 40 41 42 43 44 45 46 47 47 45 44 43 43 42 42 42 42 43 43 43 43 43 43
83 77 73 74 79 81 77 73 68 65 67 71 75 75 73 72 70 69 68 67 67 66 69 73 75 74 73 73 73 72 71 68 62 52 41 32 28 27 27 27 27 27 26 26 27 27 27 27 28 29 30 33 36 40 44 46 48 47 46 45 44 43 43 43 44 45 46 46 45 45 44 44 43 42 41 40 40 41 41 42 42 42 41 40 39 40 41 42
83 78 78 81 82 79 73 69 66 68 73 77 78 76 75 73 72 73 73 71 72 73 76 79 78 77 75 72 69 67 62 53 42 34 29 28 28 28 28 28 28 28 27 27 28 29 29 30 32 34 36 40 43 46 47 47 47 46 45 45 44 44 44 45 45 45 45 44 43 42 40 39 39 39 39 39 40 40 41 40 38 36 35 35 37 39 40 40
87 84 84 85 81 75 71 69 70 74 78 80 80 78 77 78 79 78 75 75 79 81 81 80 78 76 72 70 67 61 49 37 30 29 29 30 30 30 30 30 30 30 31 31 32 33 34 36 39 41 43 46 48 49 48 48 47 47 46 45 44 43 43 43 42 41 40 39 38 37 37 37 37 38 39 39 39 38 37 35 34 33 35 36 37 38 36 34
91 90 90 86 79 75 73 74 78 82 84 83 81 80 82 85 82 79 79 83 88 87 82 77 73 69 67 65 57 45 34 30 29 30 30 30 30 29 29 29 29 29 30 31 33 35 38 42 45 46 48 48 49 49 48 47 45 43 43 42 41 40 40 40 39 38 37 37 37 38 38 38 39 39 39 39 39 38 39 39 40 41 42 41 39 36 34 31
96 99 96 86 79 80 81 83 86 87 86 83 83 86 89 87 81 82 88 90 88 84 77 72 69 68 64 53 40 31 29 30 31 30 29 28 27 27 26 27 27 27 29 32 37 41 44 47 49 49 49 48 47 45 43 42 41 41 41 41 42 42 42 43 43 42 41 41 41 42 42 42 42 42 43 44 44 44 46 47 47 46 44 41 37 34 31 28
105 106 96 84 82 85 87 89 89 88 86 85 89 93 91 85 85 91 94 89 83 77 72 69 68 63 51 37 30 30 31 31 31 30 30 29 29 30 30 31 32 34 38 42 45 48 50 51 51 50 48 47 45 44 43 43 43 44 44 45 46 45 45 45 45 44 42 41 41 42 43 44 45 46 46 46 46 47 49 48 47 45 42 39 35 31 29 27
112 104 89 83 86 88 90 91 90 88 89 92 96 93 88 88 93 94 89 82 76 72 69 68 61 47 35 30 31 32 32 31 31 31 31 31 32 32 33 35 38 42 46 48 50 52 52 51 50 48 47 46 45 45 46 46 46 46 45 44 43 41 40 39 39 40 40 40 41 43 45 46 48 48 50 52 53 53 52 50 47 44 40 37 34 32 30 28
111 96 85 86 88 91 93 92 90 91 93 96 94 90 90 95 94 87 81 76 72 70 68 59 45 34 31 33 34 33 33 32 32 32 33 33 33 35 38 42 45 48 50 51 51 51 50 49 47 46 45 45 45 45 45 44 43 41 39 37 36 36 37 38 38 40 42 43 45 48 50 52 55 59 62 64 62 58 54 50 47 44 40 37 35 34 33 32
106 93 89 90 92 95 94 91 92 95 97 95 91 92 95 92 86 80 76 72 70 67 58 44 34 32 34 35 34 34 33 33 33 33 33 35 37 41 45 48 50 51 51 50 49 48 46 45 44 43 44 43 42 40 39 38 37 36 36 37 38 40 42 44 45 45 46 46 48 54 60 63 67 69 69 67 63 57 53 50 47 44 42 41 41 40 39 38
104 96 94 94 95 94 91 92 97 99 96 93 94 95 90 84 79 76 72 69 67 58 43 34 32 34 34 33 33 32 32 32 33 33 35 39 44 47 50 52 52 51 49 47 45 44 43 42 41 40 39 37 36 35 35 35 37 39 40 42 45 47 48 50 51 50 50 49 49 55 66 71 72 71 68 63 59 55 52 48 46 45 45 45 46 47 47 46
105 98 95 94 95 95 96 100 101 99 96 94 94 89 82 79 77 73 70 67 58 44 34 33 34 35 34 33 32 32 32 33 33 36 40 45 48 50 51 51 49 47 45 43 42 41 39 38 36 34 33 33 33 34 36 38 41 44 46 48 50 52 52 53 54 53 55 58 58 60 66 70 69 67 63 60 57 54 52 50 48 48 49 49 49 50 50 50
106 100 98 98 101 103 104 104 101 99 96 93 88 83 79 78 73 70 67 58 44 34 33 36 35 34 33 33 33 33 33 34 37 42 46 49 51 51 49 47 45 43 41 39 37 36 33 32 31 30 31 33 34 36 38 41 44 47 49 50 51 52 54 55 58 60 62 65 67 67 68 67 65 63 61 58 57 56 56 55 53 51 52 52 52 52 52 52
107 102 101 103 106 107 104 102 101 99 94 89 84 80 78 74 70 68 59 44 35 34 36 37 35 34 34 34 35 35 36 40 44 48 50 51 50 48 45 43 40 38 36 33 31 30 29 29 30 31 31 33 34 37 42 45 49 51 51 51 51 53 57 60 63 66 68 70 70 69 68 66 63 60 60 59 57 59 60 61 61 60 59 58 56 55 54 54
107 102 103 104 105 104 102 102 100 96 90 85 82 79 75 71 68 60 46 36 35 37 37 35 34 35 35 35 35 37 41 46 49 51 52 50 47 44 42 39 36 33 30 29 29 29 29 30 31 32 32 34 36 41 47 51 53 54 54 55 56 57 59 63 65 65 66 68 68 65 62 64 66 64 63 64 62 61 62 63 63 64 64 63 61 58 57 57
105 103 104 104 104 102 102 100 96 91 87 83 80 76 71 69 62 49 37 35 37 37 36 35 36 36 36 36 38 42 47 50 52 53 51 47 44 42 39 35 31 29 27 27 28 29 30 31 32 33 33 35 38 41 47 50 51 54 58 60 61 61 62 63 65 65 64 64 67 68 62 60 68 71 67 67 68 65 63 64 66 67 68 67 63 60 59 59
102 103 103 102 102 101 99 96 92 88 84 80 76 72 69 65 51 38 34 38 39 37 36 37 37 37 36 38 42 47 51 53 53 51 47 45 44 40 36 31 28 25 25 26 28 30 32 33 33 34 35 37 38 40 42 45 50 55 59 61 62 61 60 59 60 63 62 54 53 61 60 49 51 60 57 54 57 57 55 55 59 62 65 66 63 60 60 61
101 102 102 102 102 100 96 91 89 85 80 77 73 70 66 54 39 34 37 39 38 36 37 38 37 37 39 43 47 51 54 54 52 49 47 47 43 38 33 29 26 24 25 26 28 30 32 33 34 35 36 38 40 42 42 43 47 49 50 52 51 51 51 53 56 60 61 51 41 48 55 46 41 48 49 45 47 50 46 43 44 48 54 58 56 51 51 52
102 101 103 104 101 95 91 88 85 82 78 74 71 67 57 41 34 37 40 38 37 37 38 38 37 39 43 48 51 54 56 54 51 49 49 47 42 37 33 30 27 26 26 27 28 31 32 33 35 36 38 39 41 43 44 44 45 45 45 45 46 46 48 51 55 57 60 58 50 48 53 52 46 46 46 44 45 47 44 40 38 40 48 58 57 50 45 43
103 104 105 101 94 89 87 85 82 80 77 72 68 60 45 34 36 40 39 37 37 38 39 39 40 44 47 51 55 58 57 53 50 50 50 46 42 39 36 33 31 29 28 29 29 31 34 35 36 38 40 41 41 42 44 45 45 45 45 45 45 47 48 49 51 52 54 57 58 55 52 53 54 53 50 48 48 47 44 40 36 37 44 54 57 54 51 49
106 107 102 94 88 86 85 83 81 78 74 69 63 50 36 34 39 39 37 38 38 40 40 40 44 47 51 56 59 59 57 53 52 53 50 46 44 42 40 38 36 33 32 32 31 32 34 35 37 39 41 43 44 44 44 44 46 46 46 46 45 45 46 47 48 50 51 52 55 58 56 53 55 58 56 55 56 56 53 46 39 37 39 41 43 43 44 44
107 102 94 88 87 86 83 82 80 76 71 66 55 39 33 37 40 38 38 38 40 41 40 43 47 49 54 60 60 59 57 55 56 56 51 48 47 46 44 42 40 38 37 36 35 36 36 36 38 40 42 43 45 46 46 45 46 46 45 46 46 44 43 44 46 47 48 49 50 54 58 57 55 58 60 59 61 64 62 53 47 45 42 36 32 32 31 31
101 95 90 88 86 84 83 82 77 73 69 59 43 33 35 39 39 38 39 40 41 41 42 47 49 52 60 64 62 62 61 59 60 59 53 51 50 50 48 46 44 42 40 40 40 40 40 40 40 41 42 43 43 44 46 46 46 46 46 46 48 50 46 43 45 49 50 52 52 53 59 65 62 61 65 65 65 70 68 59 56 57 52 42 36 34 31 30
96 92 91 89 84 83 83 79 74 70 63 47 34 33 38 39 38 39 39 41 42 42 46 51 51 57 66 65 66 69 65 62 64 61 56 54 54 53 51 48 47 45 43 43 42 43 44 44 44 43 43 44 45 45 45 46 46 47 48 48 51 58 59 50 45 50 55 58 61 60 62 70 72 69 72 74 72 78 78 65 60 64 60 50 44 41 38 37
95 93 91 86 83 84 81 75 72 67 52 38 33 36 38 38 39 39 39 42 43 44 50 53 54 63 69 67 70 74 69 66 67 64 60 58 58 56 53 50 49 47 44 43 42 42 43 44 45 46 45 44 45 47 48 49 50 50 51 53 55 62 72 68 53 50 60 65 68 70 69 73 80 78 80 85 84 89 92 77 66 71 69 59 51 46 43 41
96 93 88 84 84 82 76 73 71 58 42 34 35 37 38 39 40 39 40 43 43 46 53 54 57 68 71 69 75 77 72 70 69 67 65 62 61 60 55 51 50 48 45 44 42 41 42 42 44 47 48 47 46 48 50 52 55 57 57 60 62 64 77 90 73 54 61 71 73 79 78 78 85 85 85 92 93 97 103 90 76 77 78 69 58 49 44 44
Wind_Speed
26 23 23 21 23 23 25 25 22 24 28 29 29 29 29 29 29 31 32 33 33 33 33 32 30 30 32 32 32 32 31 28 31 34 35 37 39 39 38 38 38 38 38 38 39 41 42 44 45 45 46 46 47 48 49 50 51 52 53 55 58 60 60 59 59 60 62 63 64 64 65 66 67 68 70 70 71 71 72 73 74 75 77 77 78 79 80 81
30 27 25 23 25 27 28 30 26 24 26 26 27 29 29 29 28 28 30 31 31 32 34 33 33 31 31 33 34 36 36 34 35 37 39 40 40 41 41 41 41 42 42 43 43 43 44 46 48 49 49 50 50 51 52 53 54 54 56 58 61 62 62 62 62 63 64 65 66 67 68 69 70 71 72 73 73 74 75 76 77 79 80 81 81 82 83 84
34 32 29 27 27 30 32 33 29 27 29 28 28 29 30 30 30 30 30 31 32 33 34 34 35 34 34 34 35 37 39 40 40 39 41 43 43 43 43 44 44 45 46 47 48 48 49 50 52 52 53 54 55 55 56 57 57 57 59 61 64 64 64 64 64 65 66 67 68 69 70 71 73 74 74 75 76 77 78 79 80 81 82 83 84 85 85 86
36 35 34 31 30 31 34 35 32 30 32 33 33 34 34 34 34 34 33 34 35 37 38 37 37 36 37 38 39 39 41 44 45 44 44 45 46 46 46 47 47 48 49 50 51 51 52 53 55 55 56 57 58 59 59 60 61 61 63 65 67 67 67 67 67 68 69 69 70 71 72 73 74 76 76 78 79 80 81 82 83 84 85 86 87 88 88 88
37 38 37 35 33 32 33 35 35 34 33 36 37 38 39 39 39 39 39 38 38 39 40 40 40 40 39 40 41 41 41 43 45 46 47 48 48 48 48 49 50 50 51 52 53 54 55 56 57 59 60 60 61 62 63 63 64 65 67 69 70 70 70 71 71 72 73 74 74 75 76 77 78 79 80 81 82 83 84 86 87 88 89 90 91 91 92 92
36 39 39 38 36 34 33 34 35 36 35 36 38 40 41 42 42 43 43 43 43 42 42 42 42 42 41 40 41 42 41 40 42 44 46 49 50 50 50 51 52 53 54 55 55 56 57 58 59 61 62 63 64 65 65 66 68 69 71 72 73 74 74 75 75 76 77 78 79 79 80 81 82 83 84 85 85 86 88 89 91 92 93 94 95 95 96 96
35 38 40 40 39 37 36 35 35 36 36 36 37 38 39 40 40 40 41 42 43 43 44 45 44 44 43 42 42 44 44 44 44 46 47 50 52 52 53 53 54 55 56 57 58 59 59 60 61 63 64 65 66 67 68 69 70 72 74 75 76 77 78 78 79 80 81 81 82 83 84 84 85 86 86 87 88 89 91 93 94 95 96 97 98 98 99 100
33 37 40 41 41 40 39 38 37 38 38 38 37 37 37 37 37 37 37 38 39 40 42 44 46 46 47 46 45 45 47 47 48 50 51 52 53 55 56 57 58 58 59 60 61 62 63 64 65 66 67 67 68 69 69 70 71 72 74 76 77 78 79 79 80 81 82 83 84 86 86 87 87 88 88 89 91 93 94 96 97 97 98 99 100 100 101 102
33 35 38 40 42 42 42 42 41 40 41 40 40 40 40 39 38 38 37 38 38 39 40 42 44 46 47 48 48 48 48 49 51 52 54 55 56 58 60 60 61 62 62 63 64 65 66 66 66 67 67 68 68 69 70 71 71 72 73 75 76 77 78 79 80 81 83 84 85 86 87 88 88 89 90 92 94 95 97 98 98 99 100 101 102 102 103 103
34 34 35 38 40 42 43 44 44 43 43 43 44 44 43 43 42 41 40 40 40 40 40 41 43 44 45 46 47 48 49 49 51 53 54 57 58 60 61 62 63 63 63 64 65 65 65 65 66 66 67 68 68 69 71 72 73 74 75 76 78 79 79 80 82 83 85 86 87 88 89 89 90 91 93 94 96 98 98 99 100 101 102 103 103 104 104 105
34 33 33 34 37 39 40 42 44 44 45 46 46 47 47 47 46 46 45 44 43 43 43 44 44 44 45 46 47 47 48 49 50 52 53 55 57 58 59 60 62 62 62 63 64 65 65 66 68 69 70 71 71 73 74 76 77 78 79 80 81 82 83 84 85 87 88 89 90 92 92 92 93 94 96 97 98 100 101 102 103 104 104 105 106 106 107 108
35 33 32 32 33 35 37 39 41 42 44 45 47 48 49 50 50 50 50 49 49 48 48 48 47 48 48 48 49 49 49 49 50 51 52 53 56 57 58 59 61 62 63 64 65 67 68 69 71 72 73 74 75 76 77 79 80 81 83 84 85 85 86 87 89 90 91 92 93 95 95 95 96 98 99 100 101 102 103 104 105 106 107 107 108 109 109 110
35 33 31 31 32 33 34 36 37 38 40 42 44 46 48 50 51 52 53 54 54 54 53 53 52 52 52 53 53 53 53 53 53 54 54 55 56 58 59 60 62 63 64 65 67 68 70 71 72 73 75 76 77 78 79 80 82 83 84 85 87 88 89 90 91 91 93 94 95 97 97 97 98 100 101 102 103 104 105 105 106 107 107 108 108 109 109 110
34 32 31 31 32 33 34 34 35 36 37 38 39 41 43 45 47 49 51 53 54 56 56 57 57 57 57 57 57 57 58 58 59 59 60 60 60 61 62 62 63 64 65 66 68 69 71 72 73 74 75 77 78 79 80 81 82 84 85 86 88 90 91 92 92 93 94 95 96 97 97 98 99 101 102 102 103 104 104 105 105 106 106 106 106 107 107 108
33 31 31 31 32 33 34 34 34 35 35 35 36 37 39 40 42 44 45 47 49 51 53 54 56 57 58 59 60 60 61 61 62 63 64 65 65 65 66 66 66 66 67 67 68 70 71 72 73 74 75 76 77 78 79 80 81 82 84 85 86 88 90 91 92 93 93 94 95 96 96 96 97 99 100 100 101 102 102 103 103 103 104 104 104 104 104 105
31 31 31 31 31 33 34 34 34 34 33 33 34 35 36 37 38 39 40 42 43 45 46 47 49 51 52 54 56 57 58 59 60 61 62 63 63 64 65 65 65 66 66 67 67 68 68 69 70 70 71 72 73 75 76 77 78 80 81 82 84 86 87 89 90 91 92 92 93 93 93 93 95 96 97 98 98 99 99 100 100 100 100 100 100 99 100 100
30 30 30 30 31 32 32 33 33 33 32 33 34 34 34 35 35 35 35 36 37 38 40 41 42 44 45 47 48 49 50 52 53 54 55 56 57 58 59 60 61 62 62 63 63 63 64 65 66 67 68 69 71 72 74 75 77 79 80 82 83 85 86 87 88 89 90 91 91 91 91 91 92 93 93 93 94 94 94 94 94 94 94 93 93 94 94 94
29 29 29 30 30 31 31 31 32 31 31 32 33 33 32 31 31 31 32 33 33 35 36 37 38 39 40 41 43 44 45 47 48 49 50 51 53 53 54 55 56 57 57 58 59 60 61 63 64 66 67 69 71 73 74 76 78 79 81 82 83 85 86 86 87 87 88 88 87 87 86 86 86 86 86 86 86 86 87 88 88 88 88 88 89 89 90 90
28 28 28 29 29 29 29 30 30 30 31 31 30 30 29 29 29 30 31 31 32 33 33 35 36 36 37 38 39 41 42 43 44 45 46 47 49 50 51 51 52 54 55 56 58 60 61 63 65 67 69 71 72 74 75 77 78 80 81 82 82 83 83 82 82 82 82 81 80 79 79 78 78 78 79 79 80 81 82 83 84 84 85 85 86 87 87 88
27 27 27 27 27 27 28 28 29 29 29 29 28 27 27 27 28 29 30 30 30 31 31 32 32 33 34 35 35 37 38 39 40 42 43 44 46 47 49 50 52 54 56 57 59 61 63 65 66 68 70 72 73 74 75 75 76 76 77 77 76 76 76 76 76 75 75 74 73 73 73 73 73 73 74 75 76 78 79 80 81 82 82 83 84 85 86 86
26 26 26 26 26 26 26 27 28 28 28 27 26 26 26 27 28 28 29 28 28 28 28 29 29 30 31 32 33 34 36 38 39 41 42 44 46 48 50 52 54 56 58 59 61 63 64 66 67 68 69 70 70 70 70 70 70 70 70 71 71 70 70 70 70 70 70 69 69 70 70 70 70 71 72 73 75 76 77 78 79 80 81 82 83 84 85 85
25 25 24 24 25 25 26 27 27 27 26 25 25 25 26 27 27 27 26 26 26 27 27 28 29 30 31 33 34 36 38 39 41 43 44 46 48 50 52 54 56 57 59 60 62 63 65 65 66 66 66 66 66 66 66 66 66 66 66 66 66 66 66 65 66 66 67 67 67 68 68 67 68 70 71 73 74 75 76 77 78 79 80 81 82 83 84 86
24 23 23 24 24 25 26 26 26 25 24 24 25 25 26 26 25 25 26 26 26 27 28 29 31 33 34 35 36 38 39 41 43 45 47 49 51 52 54 55 57 59 60 61 62 62 63 63 63 62 62 62 62 63 63 63 62 62 62 62 63 63 63 63 64 64 65 66 66 66 66 65 67 70 71 73 74 75 77 78 78 79 80 81 83 84 85 86
23 23 23 23 24 25 25 25 24 22 23 24 25 25 25 25 25 25 26 26 27 29 30 32 34 35 36 37 38 40 42 44 46 48 50 51 53 54 55 57 59 59 60 59 59 59 59 59 59 59 59 59 59 59 59 59 59 59 59 60 61 62 63 63 63 63 64 65 66 66 65 64 67 70 71 73 74 75 76 77 79 80 81 82 83 85 86 87
22 22 22 23 24 25 24 23 21 22 23 23 24 24 24 24 25 25 27 28 30 32 33 35 36 37 38 40 42 43 46 48 49 51 52 54 55 56 57 57 57 56 56 56 55 55 55 56 56 56 56 56 56 56 56 57 57 58 59 60 61 62 63 63 63 64 64 65 66 67 66 64 67 70 72 73 74 75 77 78 79 81 82 83 85 86 88 89
22 22 22 23 23 23 22 21 21 22 22 23 23 23 24 25 26 27 29 31 32 34 36 37 39 40 42 44 46 47 49 51 51 53 54 55 56 55 55 54 53 53 53 53 53 53 53 53 53 53 53 53 53 54 55 56 57 58 59 60 61 62 63 64 65 66 66 66 67 68 68 66 67 70 72 74 75 77 78 80 81 83 84 86 87 89 90 91
21 22 22 22 21 20 20 20 21 22 22 22 23 24 25 26 28 30 32 33 35 37 38 40 42 44 45 47 49 50 51 52 53 54 54 54 54 52 51 51 51 51 51 51 51 51 50 50 50 50 50 51 52 53 54 55 56 58 59 60 61 63 64 66 67 69 69 69 69 69 69 68 69 72 74 75 77 78 80 82 84 85 87 88 89 89 90 90
21 21 20 19 18 18 19 20 21 21 22 23 24 25 27 28 30 32 34 36 38 39 41 43 45 47 48 49 50 50 51 52 53 53 52 51 50 50 50 50 50 49 49 49 49 49 49 49 49 50 50 51 52 53 54 55 56 58 59 61 63 64 66 68 69 70 70 70 70 70 71 71 72 75 77 77 79 81 83 84 85 86 86 86 86 86 86 86
20 19 18 17 17 18 19 20 21 21 22 24 25 27 28 31 32 34 36 38 40 42 44 47 49 51 52 52 52 52 52 52 51 50 49 49 48 48 48 48 48 48 48 48 48 48 49 49 50 50 51 51 52 53 54 55 56 58 60 62 64 66 67 68 69 70 71 71 72 73 73 73 75 78 79 80 81 82 83 84 83 83 81 81 80 80 81 82
19 17 16 16 17 18 20 21 21 22 24 25 27 28 30 33 35 37 39 40 42 45 47 49 51 51 52 52 53 53 52 51 49 48 47 47 47 47 46 46 46 46 46 46 47 47 48 49 50 51 51 51 52 53 54 55 57 60 62 64 65 66 67 68 69 70 71 72 73 74 75 75 77 79 81 81 82 82 81 80 79 78 77 76 77 78 80 82
18 17 16 16 18 19 20 21 22 23 25 26 28 30 32 35 37 39 41 42 45 49 51 51 51 51 51 51 52 51 49 48 47 46 46 45 44 44 44 43 43 43 43 44 46 47 49 50 52 52 53 53 53 54 56 58 60 62 63 65 66 67 68 70 72 73 74 74 75 76 77 78 78 79 79 78 77 76 75 74 73 73 74 75 77 78 80 81
17 17 17 18 19 20 21 22 23 24 25 28 30 32 35 37 40 41 43 45 48 51 52 52 51 51 52 51 50 48 47 46 46 45 45 44 44 44 44 44 43 44 44 46 47 48 50 51 52 53 54 55 56 57 59 60 62 63 65 66 68 70 72 74 76 77 78 77 77 77 77 76 75 74 73 71 70 69 69 69 70 72 73 75 76 77 77 77
17 17 18 19 20 22 23 23 24 25 27 30 32 34 37 40 41 43 46 49 51 52 51 51 51 52 51 49 47 46 45 44 44 44 43 43 43 44 45 46 47 47 48 48 49 50 51 52 53 53 55 56 58 60 62 63 64 66 68 70 72 73 74 75 75 76 76 76 74 73 72 70 69 68 67 66 65 66 67 68 70 72 73 74 74 74 73 73
18 19 20 21 22 23 24 24 25 27 29 32 34 37 39 41 43 45 48 51 51 51 51 51 51 50 48 46 45 45 44 43 42 42 42 43 43 43 44 46 47 48 48 49 50 51 52 53 54 56 57 59 61 63 64 66 68 69 71 71 72 72 72 71 71 70 71 70 68 67 65 64 63 62 62 63 64 65 66 68 70 71 71 71 71 70 70 69
18 20 20 21 23 24 25 26 27 29 31 34 37 39 40 42 45 48 50 51 51 50 50 50 49 47 45 44 44 43 42 41 41 41 41 42 43 44 45 47 48 48 49 49 50 51 52 54 56 58 59 61 63 65 66 68 69 70 70 69 68 68 67 67 66 64 64 62 61 60 59 58 58 59 60 61 63 64 66 67 67 67 67 67 67 67 67 66
19 20 21 22 24 24 26 27 29 31 34 36 38 40 42 45 47 50 50 50 50 50 49 48 45 44 43 42 41 40 40 39 40 40 40 42 43 45 46 47 48 49 49 50 51 52 54 56 57 59 61 63 65 66 67 67 67 66 66 64 63 62 61 60 59 58 58 57 55 54 55 56 57 58 59 61 62 63 64 64 63 63 63 63 64 64 63 63
20 21 22 23 24 25 27 29 31 34 36 38 40 42 45 47 49 50 50 49 49 49 47 45 43 42 41 39 38 38 38 38 39 39 40 42 43 45 46 47 48 49 50 51 53 55 56 59 60 61 63 64 65 65 65 64 63 62 60 59 57 56 54 54 54 54 54 55 54 53 53 55 57 58 60 61 62 62 62 61 61 61 61 60 60 59 59 59
21 22 23 24 25 27 29 31 34 36 38 39 42 45 47 49 49 49 48 48 48 46 44 42 41 40 38 38 37 37 37 38 38 39 41 42 44 45 45 46 48 50 52 54 56 58 59 61 62 62 63 63 62 62 60 59 57 56 55 53 52 51 51 50 51 51 51 52 54 54 53 55 56 58 59 60 60 61 61 61 60 60 59 59 58 57 56 56
22 22 23 25 27 29 31 34 35 37 39 42 45 47 48 49 49 48 48 48 46 43 42 41 39 37 37 37 37 37 37 38 39 41 42 43 44 45 46 48 50 52 55 57 58 60 60 61 61 61 60 59 58 56 55 53 52 51 51 50 49 49 49 49 49 49 49 49 50 52 53 54 55 56 57 58 59 60 61 62 61 61 59 59 58 57 56 55
22 22 25 27 29 31 33 35 37 39 42 44 46 47 48 48 47 47 47 45 43 41 40 38 36 36 36 36 36 36 37 39 40 42 43 43 44 46 48 51 53 55 57 58 59 60 60 59 59 57 56 54 52 51 50 49 49 49 49 49 49 49 49 49 48 48 48 49 49 51 52 54 55 56 58 59 59 59 60 60 61 61 60 59 57 56 56 55
22 24 27 29 31 33 34 36 39 42 44 45 47 48 47 46 46 47 45 42 40 39 36 35 35 35 35 35 35 36 38 39 41 41 43 44 46 49 52 54 56 57 58 58 58 58 57 55 54 52 51 50 49 48 47 47 47 47 48 49 50 50 50 50 50 50 49 50 51 52 53 54 57 58 58 59 60 59 58 58 58 58 59 58 57 56 55 55
24 26 29 30 32 33 36 38 41 44 45 46 47 47 46 46 46 45 42 39 38 36 34 33 34 34 34 34 35 37 38 39 40 42 43 46 49 53 55 56 56 56 55 54 53 53 52 51 50 49 48 47 46 46 45 45 46 47 48 49 50 50 50 50 51 52 52 52 52 54 55 54 55 58 58 57 58 59 57 56 56 57 58 58 58 57 56 55
26 28 29 31 33 35 39 41 43 44 45 46 46 45 45 46 44 41 38 37 35 33 32 33 33 33 33 34 35 37 38 39 40 42 45 49 52 54 55 54 53 52 50 49 49 49 49 48 48 48 47 46 46 46 46 46 47 47 48 49 49 50 51 51 52 53 55 54 53 53 56 55 53 55 58 57 57 58 57 56 55 55 57 58 59 58 57 57
27 28 30 32 35 39 41 42 44 45 45 45 44 44 45 44 41 38 36 34 32 31 32 32 32 32 33 35 36 37 38 39 41 44 48 51 53 53 52 51 51 50 49 48 47 47 47 47 47 47 47 47 47 47 47 47 47 46 47 47 48 48 49 50 51 52 54 57 56 54 56 58 55 54 56 57 56 58 58 57 55 54 56 58 60 60 59 59
27 29 32 35 38 40 41 43 44 45 45 44 43 44 44 41 38 36 34 31 30 31 31 31 32 33 34 35 36 37 38 40 42 46 49 52 52 52 52 52 52 51 50 49 48 47 46 46 46 45 46 46 45 46 46 46 46 46 47 47 48 48 48 49 49 49 51 55 58 56 55 58 58 57 56 57 57 58 59 59 57 56 56 58 61 62 62 61
29 32 35 37 39 40 42 43 44 44 44 43 44 44 41 38 35 33 31 30 30 30 30 31 32 33 34 35 36 36 38 41 44 47 51 52 53 53 53 53 53 53 52 51 49 47 46 46 45 45 45 46 46 46 46 46 47 48 48 48 49 49 49 49 49 49 50 52 56 58 57 57 59 60 60 60 60 60 61 61 61 59 59 59 61 63 63 64
32 34 36 38 40 41 43 44 44 44 43 43 44 42 38 35 33 31 29 29 29 29 30 31 32 33 34 34 35 36 39 42 45 49 52 53 54 54 54 55 55 54 53 52 51 49 48 47 47 47 47 47 47 47 47 47 48 48 49 49 49 49 49 50 50 51 52 52 54 58 59 59 59 62 63 62 63 64 64 64 64 63 62 62 63 64 65 65
34 35 37 39 41 42 43 43 43 43 43 44 42 38 35 34 31 29 29 29 29 29 30 31 32 33 33 34 35 37 40 43 47 50 52 53 54 54 55 56 55 55 54 54 52 51 50 49 48 47 47 46 46 46 48 48 48 49 49 51 52 53 51 51 53 55 56 57 58 60 64 65 64 65 67 67 66 67 68 67 67 66 65 65 65 66 67 67
34 37 39 40 42 43 43 43 42 43 44 43 39 35 34 32 29 28 28 28 29 29 30 32 32 33 33 34 35 38 40 43 47 50 52 53 54 54 55 55 55 54 53 53 52 51 50 50 49 47 47 47 47 46 47 49 51 52 53 55 57 60 59 57 58 60 63 65 66 66 69 72 72 71 73 73 72 72 73 71 70 69 69 68 68 69 69 69
36 38 40 42 42 42 42 42 42 43 43 40 36 34 33 31 28 28 28 28 29 29 30 32 33 33 33 34 35 38 40 43 47 50 51 52 53 53 53 53 53 53 52 51 51 50 50 51 51 50 49 50 51 51 51 52 55 57 58 60 63 67 68 66 64 66 69 71 73 74 74 77 78 79 79 80 79 79 79 76 73 73 72 71 71 71 71 71
37 39 41 42 42 41 41 41 42 43 41 37 35 34 33 30 28 28 28 28 29 29 30 32 32 33 33 33 36 38 40 43 46 49 51 52 52 52 52 52 52 52 51 51 50 50 51 51 53 54 54 54 55 56 57 59 61 62 64 66 68 70 73 74 71 72 74 76 78 79 80 81 82 83 84 85 85 85 85 82 78 77 76 74 73 73 73 73
38 40 41 41 41 41 41 41 43 42 38 35 34 34 32 29 28 28 28 28 28 29 31 32 32 32 33 34 36 38 40 43 46 48 50 51 51 52 52 52 51 51 51 51 51 51 51 52 53 56 58 59 60 60 61 62 65 67 69 70 71 73 75 77 78 77 78 80 81 82 84 84 85 86 86 87 88 88 89 87 84 81 80 78 76 76 75 76
Wind_Direction
214 222 221 215 203 212 235 237 230 229 229 227 224 228 232 232 228 227 228 231 234 236 235 236 238 240 239 238 236 235 235 241 251 255 256 257 259 259 258 258 258 258 258 258 259 259 258 258 257 256 256 255 255 256 256 256 256 257 258 259 259 260 260 260 260 260 260 260 259 258 258 257 257 257 257 257 257 257 257 257 258 258 258 258 257 258 258 257
208 218 222 217 204 204 225 240 238 227 230 236 233 232 236 238 238 237 238 239 240 241 238 236 237 239 241 241 241 240 239 238 241 247 250 252 255 257 259 261 261 261 260 260 259 259 259 259 258 258 258 257 256 256 257 257 257 257 257 259 259 259 260 260 260 261 261 261 261 261 260 260 260 259 259 259 259 259 258 258 258 259 259 258 258 258 258 258
205 213 220 221 214 207 214 231 239 227 224 235 241 241 243 245 244 243 243 243 245 246 244 241 238 238 240 242 242 244 246 246 246 247 247 248 250 252 254 257 259 261 262 262 262 262 261 261 261 260 260 259 259 259 259 259 259 258 258 259 260 260 261 261 261 260 260 261 261 262 261 261 261 261 261 261 261 261 261 261 261 261 261 261 260 260 259 259
207 210 216 222 222 217 214 221 232 230 224 229 236 240 245 248 249 249 246 243 244 247 249 249 247 244 243 244 244 245 249 251 253 255 253 250 249 251 253 255 257 259 261 262 263 263 264 264 264 264 263 262 262 262 261 261 262 261 261 261 261 262 262 263 262 262 261 261 262 262 263 263 262 262 262 262 262 263 263 263 263 263 262 262 262 262 262 261
210 212 215 220 224 225 223 223 228 231 229 229 232 237 241 245 249 251 252 249 248 249 251 254 255 253 250 248 248 248 251 255 259 262 262 258 255 254 255 257 259 260 262 263 264 264 265 265 266 267 267 266 265 265 265 265 265 265 265 264 264 264 265 265 265 265 265 264 264 264 264 264 264 264 264 263 264 264 264 264 264 264 263 263 263 263 263 263
213 214 216 219 222 226 229 229 230 233 234 234 236 239 243 247 251 254 255 255 254 252 252 254 256 257 256 254 253 253 252 253 256 259 263 263 263 261 260 261 263 263 264 265 266 266 266 266 267 268 268 268 268 267 267 266 267 267 268 267 268 268 268 268 267 268 268 268 267 266 266 266 266 266 266 266 266 266 266 265 265 265 265 265 264 264 264 264
215 217 219 220 223 225 229 232 233 234 236 238 241 245 248 251 254 256 258 258 259 257 254 253 254 256 256 255 256 257 256 254 252 253 256 260 264 265 265 265 266 266 266 267 268 268 268 268 268 269 270 270 270 269 269 268 268 268 268 268 269 269 269 269 269 269 269 269 269 268 267 267 268 268 268 268 268 267 267 266 266 266 266 266 266 266 265 265
219 219 221 222 224 226 229 232 233 234 236 239 243 247 251 254 257 259 261 262 262 261 258 257 256 256 257 257 257 258 259 259 257 256 256 257 259 262 264 265 267 268 268 269 269 270 270 271 271 271 271 271 271 271 271 270 269 269 269 269 269 269 269 269 269 269 269 269 268 268 268 268 268 268 268 269 268 268 267 267 267 267 267 267 267 267 266 266
222 221 222 224 226 228 229 232 234 235 237 240 243 246 250 254 258 261 263 264 264 263 262 262 261 260 260 260 260 260 260 261 262 261 260 260 260 261 263 265 267 269 269 270 270 271 271 272 273 273 273 274 274 273 273 273 272 271 271 271 270 270 270 270 270 270 270 269 269 269 268 268 268 269 269 269 269 268 268 268 268 268 268 268 268 267 267 267
226 225 224 225 226 228 231 234 236 239 240 242 245 247 250 253 256 258 261 263 264 265 265 265 265 265 265 264 265 265 264 265 264 263 263 263 262 264 266 268 269 271 272 272 272 272 273 273 275 276 277 277 277 277 277 277 276 276 275 274 274 274 274 274 273 273 273 272 272 272 271 271 271 271 270 270 270 270 270 270 270 270 270 269 269 269 268 268
231 230 229 229 229 230 232 236 239 241 243 246 248 250 252 254 255 257 259 261 262 264 265 265 265 266 266 267 267 268 268 268 267 267 267 267 265 267 269 270 271 272 273 274 274 274 274 275 276 277 278 278 278 279 279 279 278 278 278 277 277 277 277 277 276 276 276 276 275 275 274 274 274 273 273 273 272 272 272 272 272 272 272 271 271 270 270 269
235 235 234 235 235 234 235 238 241 244 247 249 251 253 254 256 257 258 259 260 261 262 263 263 264 264 264 265 266 267 267 268 268 269 271 271 270 271 273 274 274 275 276 276 276 276 276 277 277 278 278 278 278 278 278 278 278 278 278 278 278 278 278 277 277 277 277 277 277 277 276 276 276 276 275 275 274 274 274 274 273 273 273 273 272 272 272 271
238 239 239 240 241 240 240 242 244 248 250 252 255 257 258 259 260 260 261 261 262 262 262 262 262 263 263 264 264 266 266 267 268 269 270 271 272 272 273 274 274 275 275 276 276 276 276 276 277 277 277 277 278 278 278 278 278 278 277 278 278 277 277 277 277 277 277 277 277 277 277 277 277 277 277 276 276 276 276 275 275 275 275 274 274 274 273 273
239 241 243 244 245 245 246 247 249 251 253 256 258 260 262 263 264 264 264 264 264 264 264 264 263 264 264 265 265 266 267 268 269 271 272 273 274 274 275 275 275 275 275 275 275 276 276 276 276 277 277 277 277 277 277 277 277 277 277 277 277 277 277 277 277 277 277 277 277 277 278 278 278 278 278 278 278 278 278 277 277 277 276 276 276 275 275 274
241 243 245 247 247 247 248 251 253 256 258 260 262 264 266 267 267 267 267 267 267 267 267 267 266 266 266 267 267 268 269 270 271 272 274 275 276 277 277 277 278 278 277 277 277 277 277 277 277 277 277 277 277 277 277 277 278 278 278 277 278 278 278 278 278 278 278 278 278 278 278 278 278 278 278 278 278 278 278 278 278 278 277 277 277 276 276 275
243 245 247 248 248 248 250 253 256 260 264 266 268 269 270 271 271 271 270 270 269 269 270 270 270 270 270 270 270 271 271 272 273 273 274 275 276 276 277 278 278 278 279 279 279 279 279 279 279 279 279 279 279 279 279 278 278 278 278 278 278 278 278 278 279 279 279 279 279 279 279 279 279 279 279 279 279 278 278 278 278 277 277 277 276 276 276 275
245 246 248 249 249 251 253 255 259 264 269 271 273 274 276 276 275 275 274 274 273 273 273 273 273 273 273 273 273 274 274 274 275 275 276 276 277 277 278 278 278 279 279 279 279 280 280 280 280 279 279 279 279 279 279 278 278 278 278 278 278 278 278 279 279 280 280 280 280 280 280 280 280 279 279 279 279 279 278 278 277 277 276 276 276 276 275 275
247 248 249 250 252 253 255 259 263 268 271 274 277 279 279 278 278 278 278 278 278 277 277 277 277 277 276 277 277 277 277 278 278 278 279 279 279 279 280 280 280 280 280 280 280 279 279 279 279 279 279 279 279 279 279 279 279 279 279 279 279 279 280 280 280 280 280 281 281 281 281 281 280 280 280 280 280 280 279 279 278 278 278 278 278 278 277 277
248 249 250 252 253 255 258 263 267 271 274 277 280 281 281 281 281 282 282 282 281 281 281 281 281 281 280 280 280 280 280 280 280 280 280 280 280 280 280 280 280 280 280 280 280 279 279 279 279 279 279 279 279 279 279 279 280 280 280 280 280 280 280 280 280 280 280 281 281 281 281 281 281 281 281 281 280 280 280 280 280 280 280 280 279 279 279 279
250 251 252 253 256 259 263 267 271 274 278 281 282 281 282 284 285 286 286 286 286 286 285 285 284 283 282 282 282 282 282 282 282 282 282 282 282 282 281 281 280 280 280 279 279 279 279 279 279 279 279 279 279 279 279 279 280 280 280 280 281 281 281 282 282 282 282 282 282 281 281 281 281 281 281 280 280 280 280 280 280 280 280 280 280 280 280 280
252 253 254 256 259 263 267 271 275 278 281 282 282 283 285 287 288 289 290 291 290 290 289 288 287 287 286 287 287 286 286 285 285 285 284 284 284 283 283 283 282 282 282 281 281 281 281 281 281 281 281 281 281 281 281 281 281 281 282 282 283 283 284 284 284 285 284 284 284 283 283 283 283 283 282 282 281 282 282 281 281 281 281 281 282 282 281 281
253 254 256 260 264 267 271 275 279 281 282 282 284 286 288 290 291 292 292 292 291 291 291 291 291 291 292 292 291 291 290 289 289 288 287 287 287 286 286 286 285 285 285 284 284 284 284 285 285 284 285 285 285 284 284 285 285 285 285 286 286 286 286 286 286 286 285 285 285 285 285 286 286 285 284 284 284 283 283 283 283 283 284 283 283 283 283 282
254 256 259 263 266 270 274 278 279 280 281 283 287 289 291 292 293 293 293 293 293 293 294 294 294 294 294 294 293 293 292 292 292 292 291 291 290 290 290 289 289 288 288 288 288 288 288 288 287 287 287 287 287 287 288 288 288 288 288 288 288 287 286 286 286 286 285 286 285 285 286 287 287 286 286 286 286 285 285 285 285 285 285 285 285 284 284 283
254 257 261 265 269 274 276 277 277 279 282 286 289 290 292 293 292 293 293 293 294 295 296 296 296 297 297 297 297 296 296 296 296 295 295 294 293 293 292 291 291 290 290 289 289 289 288 288 288 288 288 289 290 290 290 290 290 290 289 289 288 288 287 287 287 287 287 287 287 287 287 288 288 287 287 287 287 286 286 287 286 286 286 285 285 285 284 284
256 260 263 268 272 275 276 276 277 280 284 287 289 290 291 291 291 292 292 293 295 296 298 299 300 301 301 300 300 300 300 299 299 298 297 296 294 294 293 292 291 291 290 290 290 290 290 290 290 291 292 292 292 292 292 292 292 291 291 290 290 290 290 290 290 289 289 289 289 289 289 289 288 287 287 287 287 287 287 287 287 287 286 286 286 285 284 284
258 262 266 270 273 274 274 276 280 283 285 287 288 289 289 290 292 293 294 296 298 300 301 302 303 303 303 303 303 303 302 301 300 299 298 297 295 295 294 293 293 292 292 292 293 293 293 293 294 294 294 294 294 294 294 294 294 294 294 294 293 293 293 293 292 292 291 291 290 290 290 289 287 286 286 286 287 287 288 288 288 287 287 287 286 285 285 284
261 265 269 271 271 272 274 279 282 284 286 286 288 289 290 292 294 295 297 300 302 303 304 305 305 305 305 305 305 304 303 301 300 299 298 298 297 296 296 295 295 295 295 296 296 296 295 295 296 296 296 296 296 296 296 296 296 295 295 295 295 295 295 294 294 293 292 291 290 290 289 288 287 287 287 288 289 289 289 289 289 288 288 288 287 287 286 286
264 268 269 269 269 272 277 281 283 284 285 286 288 290 292 294 296 298 301 303 304 305 306 307 308 307 307 306 305 303 302 301 301 300 299 299 299 299 299 299 298 298 298 298 298 298 298 298 298 298 298 298 297 297 297 297 296 296 297 297 296 296 295 294 293 292 292 291 291 290 290 290 290 290 290 290 290 290 290 290 289 289 289 288 288 287 287 286
265 267 266 267 271 276 280 281 282 283 285 288 290 292 295 297 299 302 304 306 306 307 309 310 310 309 308 307 305 304 304 303 302 302 302 302 301 301 301 300 301 301 302 302 302 302 302 301 300 299 299 298 298 297 297 298 298 297 297 296 295 294 293 293 293 292 292 292 292 292 292 292 292 292 292 292 292 291 291 290 290 289 289 288 288 288 288 287
263 264 265 270 275 279 280 281 281 284 287 290 292 295 297 299 302 304 306 307 308 309 311 310 309 308 307 307 307 307 306 305 305 304 304 303 303 303 302 302 303 303 303 303 303 302 301 301 300 300 300 300 300 300 299 299 298 297 296 296 295 295 295 295 294 294 294 294 294 294 294 294 294 294 294 293 293 293 292 292 291 291 291 291 291 291 291 291
260 264 269 274 278 279 280 281 283 286 289 292 294 297 299 302 304 306 307 309 310 311 311 310 309 308 308 308 308 307 307 306 306 305 304 304 303 302 302 302 302 302 302 302 303 303 304 304 304 304 304 304 303 301 300 299 298 298 298 298 298 298 298 298 298 297 297 297 297 297 296 296 295 294 294 294 293 293 293 293 294 294 295 295 295 294 294 292
260 265 271 274 276 278 280 283 286 288 291 293 296 299 301 304 307 308 309 310 311 311 310 310 310 310 310 309 308 308 308 307 307 307 306 306 306 306 306 307 307 307 308 308 308 308 308 307 307 306 305 304 303 302 301 300 301 301 301 301 302 302 301 301 301 300 300 299 298 298 297 296 295 295 295 295 294 295 295 296 296 297 297 297 296 295 295 294
260 265 269 272 275 277 281 285 288 290 292 295 298 301 304 307 308 309 309 310 311 311 311 311 311 310 310 310 309 310 309 309 309 309 309 310 311 312 312 313 313 313 313 312 312 311 309 308 307 306 305 305 305 305 305 305 305 305 305 304 304 303 302 301 300 300 299 299 298 297 297 297 296 296 296 296 296 297 298 299 299 299 299 299 299 298 298 297
259 264 268 271 275 279 284 287 290 292 295 297 300 303 306 307 308 309 310 311 311 311 312 311 311 311 311 311 311 311 311 311 311 311 312 313 313 313 313 314 314 314 314 313 313 312 310 309 309 309 309 309 309 308 308 307 307 306 305 304 303 302 301 300 300 299 298 298 298 298 298 298 298 298 298 299 300 300 301 301 301 301 301 301 301 301 301 300
258 264 269 272 276 281 286 289 291 294 296 299 303 305 307 308 308 310 311 312 312 312 312 313 313 313 313 313 312 312 312 312 313 313 314 314 315 316 316 316 315 315 315 314 313 312 311 311 311 310 310 310 309 308 307 307 306 305 304 304 303 303 302 301 301 300 300 300 300 300 300 300 300 301 301 301 302 302 302 302 303 303 304 304 304 304 304 303
259 266 270 274 278 283 287 290 292 295 298 302 305 307 307 308 310 311 312 313 313 313 314 314 314 313 313 313 312 312 313 313 314 315 316 317 317 317 317 317 317 316 316 315 314 314 313 312 311 311 310 309 308 308 307 307 306 306 306 306 305 305 305 305 305 304 304 303 303 303 303 303 303 303 303 302 302 303 303 304 305 306 307 308 308 307 307 306
261 267 272 276 281 285 289 292 294 298 302 304 306 307 308 310 312 313 313 314 314 315 315 315 314 314 313 312 312 312 313 315 316 317 318 318 318 318 319 318 318 318 317 317 316 315 314 313 312 312 311 310 310 309 309 309 309 308 308 308 308 308 309 309 309 309 308 308 307 307 307 306 305 304 304 305 305 306 306 307 308 309 309 310 309 309 308 307
264 269 274 280 285 289 291 293 297 301 303 305 306 308 310 312 313 314 314 315 316 316 316 315 315 314 314 314 314 315 316 318 318 319 320 321 321 321 321 320 320 320 319 319 318 316 315 314 313 313 313 312 312 311 311 311 311 310 310 311 312 313 313 313 313 313 313 313 312 311 309 307 306 306 307 308 308 309 309 310 310 311 311 311 311 310 309 308
267 273 280 286 289 291 294 296 300 302 304 305 307 310 312 313 314 315 316 317 317 317 317 316 315 315 315 316 317 318 319 320 321 322 323 324 324 324 324 324 323 323 321 320 319 317 316 315 315 315 314 314 314 314 313 313 314 314 315 315 316 317 318 318 318 318 317 315 314 312 311 310 310 310 311 311 312 313 313 313 313 312 312 312 312 312 311 309
272 280 287 290 292 294 296 299 301 302 304 307 309 312 314 314 315 316 318 318 318 318 317 316 315 315 316 318 319 320 321 322 324 325 326 327 328 328 327 327 326 325 323 322 320 319 318 317 317 316 316 316 317 317 318 318 319 319 320 321 321 323 323 323 323 321 320 319 317 315 315 315 314 314 314 314 314 314 315 315 314 314 314 314 313 313 312 311
279 287 291 292 294 296 298 300 301 303 306 309 312 314 315 315 317 318 318 318 318 318 316 315 315 316 318 319 320 322 324 325 327 329 330 331 332 331 331 330 329 327 325 323 321 319 319 319 319 320 321 321 322 322 323 323 323 324 325 326 326 327 327 326 325 324 323 322 320 319 318 319 318 318 318 317 316 316 316 316 316 315 315 315 314 314 314 313
283 288 290 292 294 296 298 300 302 305 308 311 313 315 316 317 319 319 319 319 318 316 315 316 316 317 318 320 322 324 327 329 331 333 334 335 336 336 335 333 330 328 326 324 323 322 323 323 324 325 326 326 326 327 327 327 327 328 329 328 328 328 328 328 327 325 324 323 323 322 321 321 322 320 319 319 319 318 318 318 318 318 317 317 316 316 316 316
286 288 290 293 295 297 299 301 304 308 311 313 315 316 318 319 319 319 319 319 317 316 316 317 317 318 319 322 325 328 331 333 335 336 338 339 339 338 336 334 333 332 331 330 330 330 330 330 331 331 331 331 331 331 331 332 332 332 331 331 331 331 330 330 330 330 327 325 326 327 324 323 325 323 321 321 321 320 319 319 320 319 319 318 318 318 318 317
285 288 291 293 295 298 301 304 307 310 313 315 316 317 319 319 319 320 320 318 316 315 316 317 317 319 321 325 329 332 334 336 338 340 342 342 341 339 339 340 341 341 341 340 339 338 338 337 337 337 337 337 337 337 337 337 337 336 335 335 335 335 336 337 337 336 333 330 330 332 330 328 328 327 325 324 324 323 322 321 321 322 322 321 319 319 319 319
284 288 292 295 297 300 303 307 310 313 314 316 317 318 319 320 320 320 319 316 315 316 317 317 318 321 325 330 332 335 337 339 341 343 344 343 342 343 346 347 349 349 349 348 347 346 345 344 344 344 344 344 344 344 343 343 342 342 342 342 342 343 344 345 345 343 342 339 337 338 338 336 335 334 331 330 330 328 326 325 326 326 326 325 323 321 321 321
286 290 294 297 300 303 306 310 312 314 315 316 318 319 320 320 320 319 316 315 316 317 317 317 320 324 329 332 334 337 339 341 343 345 345 345 346 348 350 352 353 354 354 354 354 353 352 352 352 351 351 351 350 351 350 350 350 350 350 349 350 351 351 352 352 351 350 349 347 345 345 345 344 342 340 339 337 335 333 332 332 333 332 329 326 325 324 324
289 293 296 299 302 306 309 312 314 315 316 318 319 320 319 320 320 318 315 315 317 317 317 318 322 328 331 334 336 338 340 343 345 346 346 347 349 351 353 355 356 357 357 357 358 358 358 358 358 358 358 358 358 357 356 356 356 356 355 354 353 354 355 357 357 356 354 354 354 352 351 350 350 349 347 345 345 343 340 339 339 339 337 334 331 330 328 327
292 296 299 302 305 309 311 314 315 316 318 319 319 319 319 321 319 316 315 317 317 317 317 320 325 330 333 334 337 339 342 344 346 346 347 348 350 353 355 356 357 358 359 359 360 0 1 1 2 2 1 2 2 1 0 359 359 359 358 358 356 356 357 359 359 359 358 357 357 357 356 354 354 354 352 350 350 348 345 344 344 344 341 338 336 335 333 332
295 298 301 304 307 310 313 315 316 317 318 319 319 319 320 321 319 316 317 318 317 317 319 322 327 331 333 335 337 340 343 344 345 346 347 349 351 354 355 357 358 359 359 360 0 1 1 2 2 3 2 2 3 3 3 2 2 2 2 2 1 360 359 1 2 2 1 0 359 360 360 358 356 357 355 353 353 351 349 347 348 346 343 342 341 339 337 336
297 299 302 306 309 312 315 316 317 318 319 319 318 319 321 320 318 316 317 317 317 318 320 324 328 331 333 335 338 340 342 343 344 345 347 349 351 353 355 356 357 358 359 360 0 1 2 2 2 3 3 4 4 4 5 5 4 4 4 4 4 3 0 0 3 4 3 2 1 0 1 360 358 358 357 355 354 353 350 349 349 348 345 344 343 341 340 338
298 300 304 308 311 314 316 317 318 319 319 319 319 320 321 320 317 316 316 317 317 318 321 324 328 330 332 334 337 339 341 342 343 345 346 347 350 352 353 355 356 357 358 359 360 1 2 3 3 3 3 4 5 5 5 5 5 5 5 4 4 4 1 358 0 4 3 2 1 0 0 0 358 358 357 356 355 354 351 349 350 349 346 345 344 342 341 340
299 302 306 310 313 315 317 318 320 320 319 319 320 320 321 319 317 316 316 317 317 318 321 324 327 329 330 333 335 337 339 340 342 343 345 346 348 350 352 353 354 355 356 357 358 359 0 1 3 3 3 2 3 4 5 5 5 4 4 4 3 3 2 357 356 1 3 1 360 359 359 359 358 357 357 356 354 353 351 349 349 349 347 346 344 342 341 341